When you browse on this site, cookies collect data to enhance your experience and personalize the content and advertising you see.
Visit our Privacy Policy to learn more. By continuing to use the site, you agree to this use of cookies and data.
  • In Czech Republic
  • List of Countries
  • For 7 days
  • Water Temperature
  • Weather Map
  • Weather Widgets
  • user-avatar
    Login

    Hourly Weather Ronneby

    Today, 7 June, Sunday

    Time Temperature Precipitation Wind Pressure Humidity
    00:00 +8°C° 0 mm 4 mps 751 mmHg 88%
    01:00 +8°C° 0 mm 4 mps 751 mmHg 91%
    02:00 +8°C° 0 mm 4 mps 751 mmHg 92%
    03:00 +9°C° 0 mm 3 mps 751 mmHg 93%
    04:00 +9°C° 0 mm 2 mps 751 mmHg 94%
    05:00 +10°C° 0 mm 2 mps 752 mmHg 85%
    06:00 +13°C° 0 mm 2 mps 752 mmHg 77%
    07:00 +15°C° 0 mm 2 mps 752 mmHg 68%
    08:00 +16°C° 0 mm 3 mps 752 mmHg 63%
    09:00 +15°C° 0 mm 4 mps 753 mmHg 58%
    10:00 +17°C° 0 mm 4 mps 753 mmHg 54%
    11:00 +17°C° 0 mm 4 mps 753 mmHg 52%
    12:00 +18°C° 0 mm 4 mps 753 mmHg 51%
    13:00 +18°C° 0 mm 4 mps 753 mmHg 49%
    14:00 +18°C° 0 mm 4 mps 753 mmHg 52%
    15:00 +18°C° 0 mm 4 mps 753 mmHg 54%
    16:00 +17°C° 0 mm 4 mps 753 mmHg 57%
    17:00 +17°C° 0 mm 4 mps 753 mmHg 63%
    18:00 +16°C° 0 mm 3 mps 753 mmHg 70%
    19:00 +14°C° 0 mm 3 mps 754 mmHg 76%
    20:00 +13°C° 0 mm 3 mps 754 mmHg 82%
    21:00 +12°C° 0 mm 3 mps 754 mmHg 88%
    22:00 +12°C° 0 mm 2 mps 755 mmHg 93%
    23:00 +12°C° 0 mm 2 mps 755 mmHg 93%

    Tomorrow, 8 June, Monday

    Time Temperature Precipitation Wind Pressure Humidity
    00:00 +12°C° 0 mm 2 mps 755 mmHg 94%
    01:00 +10°C° 0 mm 2 mps 755 mmHg 94%
    02:00 +10°C° 0 mm 2 mps 755 mmHg 94%
    03:00 +10°C° 0 mm 2 mps 755 mmHg 94%
    04:00 +11°C° 0 mm 1 mps 755 mmHg 94%
    05:00 +13°C° 0 mm 1 mps 755 mmHg 87%
    06:00 +15°C° 0 mm 1 mps 755 mmHg 80%
    07:00 +16°C° 0 mm 1 mps 756 mmHg 73%
    08:00 +18°C° 0 mm 1 mps 756 mmHg 67%
    09:00 +18°C° 0 mm 2 mps 756 mmHg 62%
    10:00 +19°C° 0 mm 2 mps 757 mmHg 57%
    11:00 +19°C° 0 mm 3 mps 757 mmHg 57%
    12:00 +19°C° 0 mm 3 mps 757 mmHg 56%
    13:00 +19°C° 0 mm 4 mps 757 mmHg 56%
    14:00 +19°C° 0 mm 4 mps 757 mmHg 58%
    15:00 +18°C° 0 mm 4 mps 757 mmHg 61%
    16:00 +18°C° 0 mm 4 mps 757 mmHg 63%
    17:00 +17°C° 0 mm 3 mps 757 mmHg 68%
    18:00 +16°C° 0 mm 3 mps 757 mmHg 73%
    19:00 +14°C° 0 mm 3 mps 757 mmHg 78%
    20:00 +14°C° 0 mm 2 mps 757 mmHg 84%
    21:00 +13°C° 0 mm 2 mps 758 mmHg 89%
    22:00 +10°C° 0 mm 2 mps 758 mmHg 95%
    23:00 +11°C° 0 mm 1 mps 758 mmHg 95%

    Day after tomorrow, 9 June, Tuesday

    Time Temperature Precipitation Wind Pressure Humidity
    00:00 +11°C° 0 mm 1 mps 758 mmHg 95%
    01:00 +11°C° 0 mm 1 mps 758 mmHg 95%
    02:00 +11°C° 0 mm 1 mps 758 mmHg 95%
    03:00 +11°C° 0 mm 1 mps 758 mmHg 94%
    04:00 +9°C° 0 mm 2 mps 758 mmHg 94%
    05:00 +13°C° 0 mm 2 mps 759 mmHg 85%
    06:00 +15°C° 0 mm 1 mps 759 mmHg 76%
    07:00 +18°C° 0 mm 1 mps 759 mmHg 67%
    08:00 +19°C° 0 mm 1 mps 759 mmHg 62%
    09:00 +20°C° 0 mm 2 mps 760 mmHg 56%
    10:00 +23°C° 0 mm 2 mps 760 mmHg 51%
    11:00 +21°C° 0.1 mm 2 mps 760 mmHg 53%
    12:00 +20°C° 0.1 mm 2 mps 760 mmHg 56%
    13:00 +20°C° 0.1 mm 3 mps 760 mmHg 58%
    14:00 +20°C° 0 mm 3 mps 760 mmHg 58%
    15:00 +20°C° 0 mm 3 mps 760 mmHg 58%
    16:00 +19°C° 0 mm 3 mps 760 mmHg 58%
    17:00 +18°C° 0 mm 3 mps 760 mmHg 62%
    18:00 +17°C° 0 mm 3 mps 761 mmHg 66%
    19:00 +16°C° 0 mm 3 mps 761 mmHg 71%
    20:00 +14°C° 0 mm 3 mps 761 mmHg 78%
    21:00 +13°C° 0 mm 2 mps 761 mmHg 85%
    22:00 +12°C° 0 mm 1 mps 762 mmHg 92%
    23:00 +11°C° 0 mm 1 mps 762 mmHg 92%

    10 June, Wednesday

    Time Temperature Precipitation Wind Pressure Humidity
    00:00 +11°C° 0 mm 1 mps 762 mmHg 92%
    01:00 +11°C° 0 mm 1 mps 762 mmHg 93%
    02:00 +11°C° 0 mm 1 mps 762 mmHg 92%
    03:00 +10°C° 0 mm 1 mps 762 mmHg 91%
    04:00 +9°C° 0 mm 2 mps 762 mmHg 91%
    05:00 +13°C° 0 mm 1 mps 762 mmHg 82%
    06:00 +15°C° 0 mm 1 mps 762 mmHg 73%
    07:00 +18°C° 0 mm 1 mps 762 mmHg 64%
    08:00 +20°C° 0 mm 1 mps 762 mmHg 59%
    09:00 +22°C° 0 mm 1 mps 762 mmHg 54%
    10:00 +24°C° 0 mm 1 mps 762 mmHg 49%
    11:00 +23°C° 0 mm 1 mps 762 mmHg 50%
    12:00 +22°C° 0 mm 1 mps 761 mmHg 52%
    13:00 +21°C° 0 mm 2 mps 761 mmHg 54%
    14:00 +21°C° 0 mm 2 mps 761 mmHg 53%
    15:00 +21°C° 0 mm 2 mps 761 mmHg 53%
    16:00 +21°C° 0 mm 2 mps 761 mmHg 52%
    17:00 +20°C° 0 mm 2 mps 761 mmHg 54%
    18:00 +19°C° 0 mm 2 mps 761 mmHg 57%
    19:00 +19°C° 0 mm 1 mps 761 mmHg 59%
    20:00 +16°C° 0 mm 2 mps 761 mmHg 62%
    21:00 +14°C° 0 mm 2 mps 761 mmHg 65%
    22:00 +12°C° 0 mm 2 mps 761 mmHg 69%
    23:00 +11°C° 0 mm 3 mps 761 mmHg 68%

    11 June, Thursday

    Time Temperature Precipitation Wind Pressure Humidity
    00:00 +11°C° 0 mm 3 mps 760 mmHg 67%
    01:00 +11°C° 0 mm 4 mps 760 mmHg 66%
    02:00 +11°C° 0 mm 4 mps 760 mmHg 65%
    03:00 +11°C° 0 mm 4 mps 760 mmHg 64%
    04:00 +10°C° 0 mm 5 mps 760 mmHg 63%
    05:00 +13°C° 0 mm 5 mps 760 mmHg 61%
    06:00 +15°C° 0 mm 5 mps 760 mmHg 59%
    07:00 +16°C° 0 mm 5 mps 759 mmHg 57%
    08:00 +19°C° 0 mm 6 mps 759 mmHg 57%
    09:00 +20°C° 0 mm 6 mps 759 mmHg 57%
    10:00 +22°C° 0 mm 6 mps 759 mmHg 56%
    11:00 +21°C° 0 mm 6 mps 759 mmHg 59%
    12:00 +20°C° 0 mm 6 mps 759 mmHg 62%
    13:00 +19°C° 0 mm 6 mps 759 mmHg 65%
    14:00 +20°C° 0 mm 6 mps 759 mmHg 64%
    15:00 +21°C° 0 mm 7 mps 759 mmHg 62%
    16:00 +22°C° 0 mm 7 mps 759 mmHg 60%
    17:00 +21°C° 0 mm 7 mps 759 mmHg 64%
    18:00 +20°C° 0 mm 7 mps 759 mmHg 68%
    19:00 +18°C° 0 mm 7 mps 759 mmHg 72%
    20:00 +17°C° 0 mm 7 mps 759 mmHg 72%
    21:00 +16°C° 0 mm 7 mps 759 mmHg 73%
    22:00 +16°C° 0 mm 8 mps 759 mmHg 74%
    23:00 +16°C° 0 mm 8 mps 759 mmHg 73%

    12 June, Friday

    Time Temperature Precipitation Wind Pressure Humidity
    00:00 +15°C° 0 mm 7 mps 759 mmHg 73%
    01:00 +15°C° 0 mm 7 mps 758 mmHg 72%
    02:00 +15°C° 0 mm 7 mps 758 mmHg 74%
    03:00 +15°C° 0 mm 8 mps 758 mmHg 76%
    04:00 +15°C° 0 mm 8 mps 758 mmHg 78%
    05:00 +16°C° 0 mm 8 mps 758 mmHg 76%
    06:00 +17°C° 0 mm 8 mps 758 mmHg 74%
    07:00 +17°C° 0 mm 8 mps 758 mmHg 73%
    08:00 +18°C° 0 mm 9 mps 758 mmHg 72%
    09:00 +18°C° 0 mm 9 mps 758 mmHg 71%
    10:00 +19°C° 0 mm 9 mps 758 mmHg 70%
    11:00 +19°C° 0 mm 9 mps 758 mmHg 69%
    12:00 +19°C° 0 mm 9 mps 758 mmHg 68%
    13:00 +19°C° 0 mm 9 mps 758 mmHg 67%
    14:00 +18°C° 0 mm 9 mps 758 mmHg 70%
    15:00 +18°C° 0 mm 9 mps 758 mmHg 73%
    16:00 +17°C° 0 mm 8 mps 758 mmHg 76%
    17:00 +17°C° 0 mm 8 mps 758 mmHg 78%
    18:00 +16°C° 0 mm 9 mps 758 mmHg 79%
    19:00 +16°C° 0 mm 9 mps 758 mmHg 81%
    20:00 +15°C° 0.2 mm 9 mps 758 mmHg 82%
    21:00 +15°C° 0.2 mm 9 mps 758 mmHg 83%
    22:00 +15°C° 0.2 mm 9 mps 758 mmHg 84%
    23:00 +15°C° 0.6 mm 9 mps 758 mmHg 86%
    Show more